Regional Weather Roundup
Issued by NWS Wakefield, VA

Home | Current Version | Previous Version | Text Only | Print | Product List | Glossary Off
Versions: 1 2 3 4 5 6 7 8 9 10 11 12 13 14 15 16 17 18 19 20 21 22 23 24 25 26 27 28 29 30 31 32 33 34 35 36 37 38 39 40 41 42 43 44 45 46 47 48 49 50

109
ASUS41 KAKQ 270615
RWRAKQ

REGIONAL WEATHER ROUNDUP
NATIONAL WEATHER SERVICE WAKEFIELD VA
200 AM EDT FRI MAY 27 2016

Note: "fair" indicates few or no clouds below 12,000 feet with no
significant weather and/or obstructions to visibility. * = Denotes
station may not report precipitation (e.g., rain,snow,etc.),
thunder or fog.

VAZ042-051-052>054-056-270700-
NORTHERN VIRGINIA

CITY           SKY/WX    TMP DP  RH WIND       PRES   REMARKS
WASH NATIONAL  MOCLDY    72  63  73 S8        30.04F
DULLES         FAIR      72  64  76 S5        30.04S
FORT BELVOIR   FAIR      66  64  94 CALM      30.04S
QUANTICO       FAIR      71  67  87 CALM      30.05S
FREDERICKSBRG* NOT AVBL
STAFFORD*      FAIR      64  62  94 CALM      30.09S
WARRENTON      FAIR      66  61  82 CALM      30.05S
CULPEPER*      FAIR      66  65  97 CALM      30.06S
MANASSAS*      FAIR      66  64  94 CALM      30.04F
LEESBURG*      FAIR      68  68 100 CALM      30.06R
WINCHESTER     FAIR      68  64  88 SW5       30.07R
FRONT ROYAL*   FAIR      70  63  78 SW3       30.06R
LURAY*         FAIR      68  63  83 SW3       30.08S
$$

VAZ048-049-060>072-079>083-270700-
CENTRAL AND SOUTH CENTRAL VIRGINIA

CITY           SKY/WX    TMP DP  RH WIND       PRES   REMARKS
RICHMOND       FAIR      71  65  81 S9        30.08R
CHESTERFIELD*  FAIR      72  55  56 S7        30.10R
PETERSBURG*    FAIR      72  66  83 CALM      30.10R
HANOVER        FAIR      72  62  71 S6        30.09R
TAPPAHANNOCK*  FAIR      73  65  75 S8        30.08S
QUINTON*       FAIR      73  66  80 S7        30.09R
CHARLOTTSVILLE FAIR      71  64  78 CALM      30.07S
GORDONSVILLE*  FAIR      66  65  97 CALM      30.06S
ORANGE*        FAIR      66  66 100 CALM      30.08S
LOUISA*        FAIR      72  68  88 CALM      30.06S
BUMPASS*       FAIR      69  65  89 CALM      30.07S
FARMVILLE*     FAIR      67  67 100 CALM      30.06F
CREWE*         FAIR      70  68  94 CALM      30.09S
FORT PICKETT*  NOT AVBL
CHASE CITY*    FAIR      72  65  80 S3        30.11R
CLARKSVILLE*   MOCLDY    72  64  78 S10G16    30.10R
SOUTH HILL*    FAIR      69  65  88 S6        30.17R
LAWRENCEVILLE* FAIR      69  66  89 CALM      30.11R
EMPORIA*       FAIR     N/A N/A N/A SE3       30.13R
$$

VAZ088>098-270700-
SOUTHEAST VIRGINIA

CITY           SKY/WX    TMP DP  RH WIND       PRES   REMARKS
NORFOLK        FAIR      72  62  71 SW15      30.11R
VIRGINIA BEACH FAIR      75  63  66 SW12      30.11R
NORFOLK NAVAL  FAIR      72  63  73 S9G21     30.12R
WEST POINT*    FAIR      73  64  71 S6        30.11R
SALUDA*        FAIR      73  65  76 S10       30.08S
NEWPORT NEWS   FAIR      73  61  65 SW13      30.10R
LANGLEY AFB    FAIR      72  63  72 S15       30.11R
FORT EUSTIS    FAIR      72  63  71 S7        30.09R
WILLIAMSBURG*  FAIR      73  64  73 S6        30.11R
HR EXEC AP*    FAIR     N/A N/A N/A SW8       30.14R
FRANKLIN*      FAIR      70  60  70 S8        30.12S
US460-WAKEFLD  FAIR      71  62  73 S5        30.10S
$$

VAZ020-022-025-037-045-270700-
WEST CENTRAL AND SOUTHWEST VIRGINIA

CITY           SKY/WX    TMP DP  RH WIND       PRES   REMARKS
STAUNTON*      FAIR      62  60  94 CALM      30.13R
WAYNESBORO*    FAIR      63  60  91 CALM      30.12S
HOT SPRINGS VA MOCLDY    64  59  83 W9        30.21S
LYNCHBURG      FAIR      64  63  96 CALM      30.11S
DANVILLE       CLOUDY    69  64  84 S3        30.10S
SOUTH BOSTON*  FAIR      70  66  87 CALM      30.10R
MARTINSVILLE   MOCLDY    60  59  99 CALM      30.14S FOG
ROANOKE        FAIR      66  64  93 W3        30.13S
BLACKSBURG     FAIR      61  60  99 CALM      30.20R FOG
DUBLIN*        CLOUDY    64  63  99 SE3       30.18R
MARION*        MOCLDY    60  58  95 CALM      30.21S FOG
HILLSVILLE*    CLOUDY    65  62  88 SW3       30.18S
RICHLANDS*     FAIR      63  54  72 SE6       30.17F
WISE*          FAIR      61  59  94 CALM      30.18S
ABINGDON*      FAIR      62  62  99 CALM      30.16S
$$

MDZ021>025-VAZ099-100-270700-
SOUTHERN MARYLAND AND THE DELMARVA PENINSULA

CITY           SKY/WX    TMP DP  RH WIND       PRES   REMARKS
PATUXENT RIVER CLEAR     74  64  71 SW12      30.06R
BAY BRIDGE APT CLEAR     73  66  78 S8        30.05S
LEONARDTOWN    CLEAR     72  63  73 SW5       30.08S
DOVER          CLEAR     73  67  84 S9        30.05R
GEORGETOWN     CLEAR     70  64  81 S7        30.08S
EASTON         PTCLDY    75  70  84 S7        30.10R
CAMBRIDGE      CLEAR     70  64  83 S3        30.06S
SALISBURY      CLEAR     67  63  87 S5        30.08S
OCEAN CITY     CLEAR     69  65  86 SW10      30.09S
WALLOPS ISLAND FAIR      67  65  93 S10       30.10S
ACCOMACK*      FAIR      70  63  78 SW8       30.10R
$$

NCZ012>017-030>032-270700-
NORTH CENTRAL AND EASTERN NORTH CAROLINA

CITY           SKY/WX    TMP DP  RH WIND       PRES   REMARKS
ROANOKE RAPIDS FAIR      70  61  73 S7        30.12R
RALEIGH        PTCLDY    72  60  66 SW9       30.13R
ELIZABETH CITY CLEAR     69  63  81 SW8       30.14R
AHOSKIE*       CLEAR     68  60  75 S5        30.14R
EDENTON*       CLEAR    N/A N/A N/A S6        30.14S
CURRITUCK*     CLEAR     71  63  74 SW7       30.14R
KILL DEVIL HLS CLEAR     71  64  78 SW5       30.13S
MANTEO         NOT AVBL
CAPE HATTERAS  CLEAR     72  63  73 S7        30.14F
TARBORO*       FAIR      70  62  76 S3        30.15R
GOLDSBORO      PTCLDY    69  69 100 SW5       30.13S
WASHINGTON     CLEAR     68  64  87 S6        30.14S
GREENVILLE     CLEAR     70  64  83 SW7       30.15R
NEW BERN       CLEAR     64  61  90 CALM      30.15F
WILMINGTON     MOCLDY    69  64  84 SE3       30.14S
$$

VAZ048-270700-
ELSEWHERE

CITY           SKY/WX    TMP DP  RH WIND       PRES   REMARKS
HARRISBURG PA  CLOUDY    73  66  78 S3        30.02S
BALTIMORE      PTCLDY    72  63  73 S3        30.04S
ANNAPOLIS      CLEAR     70  65  84 VRB3      30.04S
ANDREWS AFB    FAIR      70  63  78 S9        30.05R
PHILADELPHIA   MOCLDY    73  61  65 SW3       30.06S
HENDERSON NC   CLEAR     68  63  83 S7        30.12R
GREENSBORO     CLEAR     71  62  73 S9        30.12R
ROCKY MOUNT    CLEAR     70  63  78 S7        30.14R
$$

VAZ100-270700-
MARINE

STATION/POSITION TIME  TEMP    WIND        PRES    WAVE   SWELL
                       AIR SEA DIR/SP/G            HT/PER HT/PER
                 (UTC) (F)     (DEG/KT/KT) (MB)    (FT/S) (FT/S)
BRANDYWINE LGT   0500   71     200/ 17/ 17 1017.9F
CAPE MAY NJ      0500   68 68  170/  6/  9 1017.9F
LEWES DE         0500   74 62  210/  8/ 13 1018.0F
15NM E FENWICK I 0550   64 59              1018.7F   3/ 5
OCEAN-CITY-INLET 0500   63 61  210/ 12/ 14 1019.3F
WACHAPREAGUE VA  0500   71 74  220/  9/ 12 1018.6F
THOMAS POINT MD  0600   68 65  190/ 11/ 11 1018.8R
GOOSES REEF MD   0600   71 65  180/  6/  8 1018.7R   1/ 3
COVE POINT MD    0500   74     210/ 13/ 15 1018.2F
SOLOMONS ISLAND  0500   73 68  200/ 12/ 14   N/A
BISHOPS HEAD MD  0500   74 76  180/ 16/ 19 1017.9F
PINEY POINT MD   0500          220/ 12/ 13   N/A
POTOMAC MD       0600   73 70  230/ 12/ 14 1017.2R   1/ 2
CAMBRIDGE MD     0500   73 65  180/  4/  6 1016.9F
LEWISETTA VA     0500   76 73  220/ 11/ 13 1017.6F
RAPPAHANNOCK LGT 0500          180/ 13/ 14 1019.3S
STINGRAY PT      0600   73 68  220/ 12/ 14 1019.2R   1/ 2
YORK RVR RNG VA  0500   74     210/ 17/ 19 1017.9F
YORKTOWN VA      0500   75 66  200/ 11/ 15 1018.4F
JAMESTOWN VA     0600   73 71  200/ 10/ 14   N/A
DOMINION TERM VA 0500   73     200/ 14/ 16 1018.9F
KIPTOPEKE VA     0500      70  190/ 11/ 12   N/A
CHES BAY BRIDGE  0500   73 62  180/ 19/ 22 1018.7F
CAPE HENRY VA    0500   73     200/ 10/ 18   N/A
CHESAPEAKE LGHT  0500   70     200/ 20/ 21 1019.7F
WILLOUBY STN VA  0500   73     200/ 17/ 20 1019.8F
CAPE HENRY BUOY  0512      66                N/A     2/ 4
1ST LANDING BUOY 0600   71 66  210/ 16/ 19 1019.3R   1/ 3
CAPE CHARLES BUO 0526      66                N/A     2/ 4   2/ 8
OFFSHORE WE BUOY 0521      61                N/A     2/ 8   2/ 8
64NM E OF VA BCH 0550   63 59  200/  8/  8 1019.9F   2/ 7   2/ 7
DUCK PIER NC     0500   73 60  200/ 12/ 15 1019.8F
44100 DUCK FRF   0524      66                N/A     2/ 7
44056 DUCK FRF   0511      63                N/A     2/ 8
OREGON INLET NC  0500   73 77  190/ 10/ 12 1020.8F
HATTERAS NC      0500   73 75  180/  4/  7 1020.8F
DIAMOND SHLS NC  0550   76 71  180/ 14/ 16 1020.7F   2/ 8   2/ 8
CAPE LOOKOUC1F1C2F2C3F3C4F4C5F5C6F6C7F7C8M1C9!



USA.gov is the U.S. government's official web portal to all federal, state and local government web resources and services.